Simultaneous Nadir Overpasses (SNOs) Predictions

Prediction of SNOs between AURA and NPP Satellite Orbit:

Table of predicted SNOs for the next 14.0 days since TLE Epoch: 3/17/2012
Index Date (AURA) Time (AURA) AURA Lat,Lon Date (NPP) Time (NPP) NPP Lat,Lon Distance(km) Time Diff (sec)
1 03/18/2012 11:24:56 79.77, -92.32 03/18/2012 11:23:50 79.77, -92.34 0.48 66
2 03/18/2012 12:14:16 -80.02, 77.30 03/18/2012 12:14:27 -80.03, 77.43 2.52 11
3 03/21/2012 03:41:21 79.87, 24.34 03/21/2012 03:40:41 79.87, 24.35 0.29 40
4 03/21/2012 04:30:42 -80.08,-166.29 03/21/2012 04:31:19 -80.09,-166.14 2.89 37
5 03/23/2012 19:57:48 79.91, 140.52 03/23/2012 19:57:35 79.91, 140.48 0.95 13
6 03/23/2012 20:47:09 -80.12, -50.07 03/23/2012 20:48:13 -80.12, -50.00 1.43 64
7 03/26/2012 11:24:53 -79.79, 87.80 03/26/2012 11:23:50 -79.78, 87.71 1.77 63
8 03/26/2012 12:14:12 80.03,-102.61 03/26/2012 12:14:26 80.03,-102.49 2.52 14
9 03/29/2012 03:41:17 -79.88,-155.54 03/29/2012 03:40:42 -79.88,-155.57 0.68 35




NCC Satellite Simultaneous Nadir Overpasses (SNOs) Prediction Service
